Theta_e
355 356 355 355 356 358 357 358 359 359 361 362 363 363 361 361 363 367 363 359 358 359 360 360 360 362 356 358 364 355 356 357 354 348 352 358 362 362 360 363 354 358 344
355 357 356 357 357 354 357 357 359 360 361 362 362 364 363 362 363 362 359 357 358 358 358 360 358 355 359 364 354 361 356 357 352 351 355 356 359 361 364 362 359 354 354
354 354 356 356 356 355 355 357 359 360 360 358 361 363 361 358 360 361 362 358 358 359 359 359 359 360 358 356 357 353 351 353 355 349 347 350 357 359 359 360 358 359 352
352 353 354 356 356 356 357 358 358 360 359 359 360 362 360 359 358 360 361 360 359 359 361 361 359 359 359 360 357 357 355 353 355 356 349 348 349 359 357 351 353 354 352
352 353 355 357 359 358 358 360 360 359 359 360 359 360 359 357 355 358 358 357 360 359 360 360 360 355 344 346 361 357 360 361 361 357 355 354 351 357 350 352 352 354 358
353 353 356 358 359 359 360 361 361 361 361 360 359 359 358 354 343 342 350 357 359 358 357 359 361 350 347 335 336 332 339 352 354 353 349 348 350 350 348 346 348 347 345
355 355 355 357 357 358 360 361 361 361 362 362 360 359 358 359 335 336 341 357 358 362 359 359 358 354 350 355 333 329 330 329 331 346 347 342 343 343 342 344 346 339 330
348 351 354 356 356 357 359 359 361 361 360 360 360 360 359 353 327 330 338 359 359 359 357 356 356 354 349 348 351 347 339 338 339 341 342 336 336 336 339 335 338 331 329
347 347 349 353 354 355 355 358 360 360 362 362 360 361 360 347 323 326 339 355 353 349 349 350 348 348 326 327 347 342 338 330 321 320 319 318 318 319 325 336 333 335 325
346 344 347 350 350 350 352 357 359 358 354 352 351 354 340 345 320 322 337 347 343 341 341 336 321 325 319 322 345 338 332 325 327 324 327 322 322 320 321 324 330 328 327
344 342 341 343 344 343 349 349 353 350 344 342 336 335 338 337 332 318 324 345 342 339 337 335 331 315 314 317 324 336 326 327 323 323 323 326 327 326 325 326 328 327 325
347 344 336 341 343 344 347 349 347 338 334 330 328 326 328 332 321 318 319 325 329 333 330 325 319 311 311 315 321 315 317 323 329 326 323 323 322 321 323 326 329 327 326
340 339 336 332 333 333 331 329 327 329 327 325 324 322 319 322 319 314 315 317 320 330 327 316 312 310 312 318 316 318 318 332 328 325 322 321 320 321 325 325 329 329 327
338 335 333 332 328 328 327 326 324 323 323 321 320 318 317 319 320 321 320 319 317 320 319 319 316 317 317 321 323 326 332 331 327 323 321 321 323 322 318 320 320 323 323
330 329 329 327 322 317 310 310 320 318 320 322 321 320 319 318 317 313 318 322 322 317 319 321 325 325 322 322 322 323 325 326 323 322 321 319 318 318 317 319 319 319 316
325 325 327 323 321 318 315 313 303 303 302 301 304 319 321 307 301 301 301 302 305 308 323 323 321 320 319 319 318 317 318 318 318 318 317 317 315 315 315 316 316 314 312
325 323 324 323 322 321 321 317 313 307 303 301 300 299 302 300 298 299 299 302 306 310 323 320 319 320 318 317 316 316 315 317 321 317 315 314 314 313 315 312 312 311 310
327 317 325 324 325 326 327 325 322 320 318 314 300 302 296 295 296 297 299 305 317 316 320 319 316 316 316 316 315 315 316 317 316 315 314 313 313 312 311 310 310 310 310
326 324 323 323 321 320 321 322 320 318 314 310 310 303 297 294 294 296 298 319 318 317 317 317 317 317 316 317 317 318 318 316 316 315 314 313 313 311 311 312 310 306 307
327 320 320 321 320 319 318 319 318 315 312 314 314 314 309 305 312 316 319 320 319 318 319 319 319 318 318 318 318 318 316 315 317 316 315 315 315 317 314 315 313 312 313
328 324 323 325 324 321 321 321 323 320 315 314 314 314 306 316 317 318 318 319 318 319 320 321 320 319 319 319 319 318 316 316 317 316 316 316 317 315 317 317 316 316 314
327 325 325 324 324 324 324 322 320 318 317 316 316 311 299 317 318 317 317 318 319 320 321 321 320 320 319 319 319 318 316 316 316 317 316 317 316 316 316 315 315 315 314
323 322 321 320 320 314 316 316 315 315 315 316 316 314 314 317 318 318 318 319 320 321 322 322 321 320 321 321 322 321 319 318 318 319 317 317 316 316 315 314 313 313 311
322 322 322 322 321 319 318 317 317 311 317 317 317 316 316 317 318 320 320 320 321 321 321 321 321 320 320 321 321 320 320 321 322 320 321 319 318 314 316 315 314 313 313
321 321 321 321 320 320 320 320 319 317 317 318 318 318 318 319 319 320 321 321 321 321 321 321 321 321 321 321 321 320 297 291 308 295 316 318 318 318 317 316 315 315 311
323 321 321 320 319 320 320 319 320 320 320 319 319 320 320 320 320 320 320 319 320 321 321 322 322 322 321 321 317 295 287 288 300 287 309 313 314 316 316 315 313 313 311
Wind_Speed
14 14 13 13 14 13 11 10 10 9 8 7 7 7 6 6 7 7 6 6 7 6 7 5 5 4 7 5 4 7 4 4 5 7 4 2 4 2 3 3 5 3 8
13 13 14 13 13 13 12 12 10 10 9 8 7 7 7 5 5 6 6 6 5 7 7 5 6 5 4 6 7 1 4 4 6 7 5 3 4 5 4 4 4 2 2
13 14 14 14 14 14 14 13 11 10 10 9 8 8 7 6 6 7 6 7 8 8 6 6 6 6 5 7 5 6 4 3 3 7 7 6 0 4 3 4 4 2 2
11 12 13 14 15 14 13 13 13 11 11 10 10 9 8 7 8 9 6 8 8 7 7 7 7 6 7 6 6 5 6 6 4 5 8 6 4 5 4 5 3 4 3
12 11 11 11 12 12 12 12 12 12 12 12 11 10 10 9 7 7 7 9 8 7 8 7 8 4 5 5 4 7 6 5 5 4 6 5 4 3 3 4 5 3 2
9 10 10 10 11 12 12 12 12 13 13 12 12 12 12 9 9 10 7 8 8 9 8 7 6 5 5 6 6 10 9 7 6 5 7 5 4 5 4 5 4 5 1
6 8 7 8 10 11 12 13 13 13 13 13 12 12 12 12 8 5 5 7 7 6 8 7 6 3 4 5 7 9 8 6 4 6 5 4 3 5 5 5 4 4 3
3 3 6 8 10 10 9 10 12 13 13 13 13 13 11 4 10 9 6 7 6 4 3 4 6 2 2 6 5 3 5 7 7 5 6 6 5 6 5 3 4 6 5
6 6 5 6 6 9 11 12 12 9 9 11 12 12 11 8 10 10 7 4 5 4 2 2 4 3 7 7 4 5 5 7 10 11 10 6 6 8 8 2 1 2 2
5 4 7 7 9 8 6 8 8 5 6 4 3 3 7 9 8 10 8 6 6 5 5 6 10 7 6 6 3 7 6 5 4 4 5 6 4 7 10 8 4 4 3
3 4 2 5 10 7 10 8 8 7 7 7 6 4 6 6 7 7 10 8 7 7 6 5 6 6 7 8 6 6 7 7 6 5 4 3 3 4 6 6 5 4 4
1 3 4 4 4 7 8 9 7 8 8 8 8 6 3 5 6 4 7 10 9 9 7 5 5 6 7 10 9 10 9 8 5 4 4 3 4 4 5 5 7 8 8
3 4 4 6 6 5 4 5 4 5 6 6 6 7 5 4 6 11 13 11 12 10 7 9 10 7 11 12 6 6 8 4 4 5 4 4 5 5 3 5 6 6 7
5 5 3 6 6 6 5 5 5 4 3 5 6 5 4 4 5 6 7 10 11 10 9 6 6 7 11 8 7 5 1 2 3 5 4 4 3 2 4 3 3 2 2
4 5 5 4 6 7 7 5 4 4 3 4 4 4 5 5 3 4 8 8 6 7 7 5 4 5 5 5 5 4 3 4 4 4 4 4 3 4 4 4 3 3 4
4 3 4 5 5 4 4 6 17 11 14 12 8 5 5 8 9 11 12 12 12 10 5 5 6 6 5 5 5 5 5 3 4 4 4 4 4 4 4 3 3 4 4
4 4 3 5 5 5 4 5 6 8 16 14 11 9 11 10 10 12 12 10 7 4 6 5 6 7 6 5 5 6 6 5 3 5 5 4 4 4 1 4 3 4 4
6 6 3 4 5 5 5 5 5 6 6 6 11 8 10 8 9 9 9 9 6 5 6 7 7 6 5 5 5 5 6 6 5 5 4 4 4 3 4 4 4 4 4
5 5 4 4 4 3 6 6 5 6 6 7 7 6 6 7 7 5 4 6 7 7 6 7 6 6 6 6 5 5 4 4 4 4 3 4 3 4 3 4 6 3 3
4 8 6 3 6 6 4 5 6 7 8 7 7 8 7 6 8 9 7 5 5 5 5 6 5 4 5 6 5 5 5 5 5 5 4 4 3 2 3 2 3 4 3
5 7 7 7 7 6 7 8 8 9 8 7 8 8 10 7 7 6 5 5 4 5 6 6 6 6 6 6 6 5 5 5 4 4 4 4 3 3 2 2 1 2 3
6 8 8 7 8 7 8 7 7 8 9 8 9 7 1 6 7 6 6 6 6 6 5 6 6 6 6 6 5 5 4 4 4 4 5 4 4 5 3 3 3 2 3
6 8 7 7 6 7 7 7 7 7 8 7 9 10 8 6 7 7 7 7 6 6 6 6 6 6 6 5 5 4 5 4 4 6 6 6 7 6 5 6 5 2 5
6 7 7 6 7 7 7 7 7 5 7 7 8 9 9 7 7 8 7 7 7 6 6 5 5 5 5 5 5 6 6 4 6 7 8 9 9 5 6 8 8 6 4
8 8 7 6 7 7 7 8 8 8 7 7 7 7 8 8 8 8 8 6 6 5 6 6 6 6 7 8 6 4 9 6 6 8 8 10 11 11 10 8 8 2 7
7 8 7 7 8 7 7 7 7 8 9 9 9 9 8 9 9 8 7 7 8 7 8 7 6 7 6 6 4 6 2 2 7 6 8 10 10 9 9 5 4 6 4
Wind_Direction
205 209 211 208 212 215 218 220 227 229 232 233 232 243 225 237 228 226 220 266 256 258 271 254 262 276 279 225 194 254 267 251 285 307 321 41 318 256 241 207 184 250 122
213 209 215 215 218 216 220 221 219 221 225 234 238 231 236 238 235 237 243 288 246 250 246 246 255 263 248 228 266 305 291 263 267 292 299 296 292 305 304 289 267 305 21
213 216 216 215 215 221 218 221 220 217 220 229 222 231 239 245 243 252 251 255 254 258 257 258 264 272 272 302 292 304 288 287 258 278 302 286 70 264 286 244 257 247 233
220 218 221 224 223 221 218 218 218 217 223 221 227 228 234 240 253 253 257 252 257 251 257 259 261 256 248 260 268 284 266 288 300 290 296 302 293 93 306 294 253 230 262
242 226 224 230 232 232 224 216 217 214 215 223 220 222 226 231 234 247 254 262 247 255 260 258 244 313 38 19 288 269 274 286 297 297 286 285 311 20 335 319 297 302 256
215 230 229 224 227 226 224 221 214 216 217 215 222 224 223 231 180 188 234 257 260 266 263 260 266 168 135 92 67 57 35 314 290 291 293 324 340 329 303 313 283 288 304
237 215 219 229 230 224 222 220 218 217 218 217 220 222 225 231 117 132 199 241 252 258 260 258 268 153 248 171 135 129 86 55 32 326 324 359 309 347 324 298 24 35 45
306 225 223 223 230 226 225 220 218 216 214 214 215 217 222 157 126 134 167 237 237 249 294 282 286 254 34 299 172 135 66 46 19 41 54 54 33 356 341 346 358 100 94
255 249 247 231 238 228 223 219 220 216 216 214 213 207 206 160 162 160 183 150 159 181 180 48 326 272 40 306 252 159 110 89 60 65 84 88 59 33 2 240 197 193 124
256 274 280 257 257 239 240 199 187 186 158 147 143 160 143 165 179 161 171 161 165 144 126 91 54 43 359 334 237 152 146 132 119 128 101 80 60 61 46 50 31 74 108
187 275 302 239 239 244 236 241 234 190 164 152 134 112 144 166 168 189 161 161 155 152 140 115 82 44 54 40 14 131 133 134 114 115 118 114 95 86 74 65 42 34 84
32 15 0 337 229 237 237 236 186 155 156 153 146 129 120 119 72 155 132 122 136 131 119 96 88 77 76 80 82 110 138 174 144 124 107 100 91 78 75 63 55 51 58
102 65 69 58 50 56 66 65 88 150 156 155 152 143 136 106 86 79 90 100 101 119 114 110 124 138 128 93 96 151 197 169 143 143 105 78 69 57 153 130 109 111 83
148 122 100 98 74 54 76 86 80 70 105 119 119 116 103 98 102 109 107 94 95 91 107 109 95 76 61 108 154 196 211 73 115 112 114 93 115 76 65 19 47 24 79
129 134 125 96 91 85 52 35 57 46 52 102 103 117 128 125 116 118 128 119 125 122 124 126 153 135 107 102 88 88 127 138 119 118 105 91 79 80 61 46 36 63 50
123 120 118 121 112 105 104 84 48 41 57 54 60 113 84 87 119 107 101 104 118 150 136 126 121 129 131 137 139 136 129 123 112 108 93 78 69 49 81 70 57 44 37
158 139 131 132 126 125 130 101 105 63 65 53 59 68 75 113 102 108 112 112 121 140 129 141 145 142 146 161 165 159 135 101 120 99 97 86 92 99 98 72 68 45 60
134 161 161 136 151 148 129 134 140 142 124 101 44 63 77 94 100 112 126 136 143 220 159 152 140 147 156 151 147 134 141 152 127 117 106 94 82 78 93 81 68 40 47
150 133 151 151 133 120 127 137 136 127 120 115 120 106 93 80 98 118 183 197 154 149 146 142 148 151 150 155 141 141 146 127 123 125 114 100 105 106 95 111 119 58 289
125 113 134 99 138 138 125 121 132 133 134 144 145 140 137 152 167 172 197 163 163 143 146 139 132 127 141 133 149 153 132 163 175 178 153 130 113 77 93 88 57 9 33
154 152 140 152 155 153 149 163 167 157 159 165 138 147 155 189 159 161 160 157 157 152 167 154 146 146 149 159 159 178 177 170 173 172 163 183 172 188 217 112 5 350 38
154 152 171 155 149 166 152 155 151 150 158 162 137 138 190 231 156 160 143 142 131 135 145 150 160 165 165 163 172 193 183 178 179 193 209 228 213 219 233 264 286 302 357
160 160 150 146 146 119 167 155 152 159 159 158 147 152 183 188 165 162 151 144 146 145 144 158 169 169 166 188 203 234 258 240 214 215 222 229 234 234 259 270 278 285 300
178 179 168 160 159 172 154 155 157 165 160 161 167 169 189 183 180 166 174 170 179 177 176 192 209 222 179 234 220 240 248 341 330 302 280 270 275 211 243 266 266 253 302
177 180 180 175 166 205 164 187 180 177 185 176 178 179 182 184 187 184 194 198 203 214 216 219 227 223 230 240 292 348 67 37 308 343 285 273 274 274 270 259 258 215 264
199 192 196 180 183 190 180 196 186 195 196 195 195 194 196 196 196 195 203 213 208 204 220 219 212 216 183 195 78 68 72 298 281 254 273 258 249 243 253 241 221 259 277